User: anonymous   Login
Location: Vancouver
(49.2500°N, 123.1330°W)
Time: 01:07:03
(UTC-07:00)
Language:

Cosmos 676 Rocket - Orbit

View from above orbital plane
View from above orbital plane
View from above satellite
View from above satellite

Ground track
Ground track

The orbit data is extracted from the following two-line orbital elements,

1 07434U 74071B   15182.29657953  .00000054  00000-0  27211-4 0  9996
2 07434 074.0481 090.4142 0020915 181.0310 179.0804 14.36476344133766
Epoch (UTC): 01 July 2015 07:07:04
Eccentricity: 0.0020915
inclination: 74.0481°
perigee height: 755 km
apogee height: 785 km
right ascension of ascending node: 90.4142°
argument of perigee: 181.0310°
revolutions per day: 14.36476344
mean anomaly at epoch: 179.0804°
orbit number at epoch: 13376

The dashed part of the orbit path shows where the satellite is in the earth's shadow,  

DLR